ONEWEB-0047 (45152 NORAD) Tracking and Keplerian Element Data

This shows tracking and keplerian element data for the satellite.

Feedback or suggestion? Click here.




ElementValue
Catalog45152
NameONEWEB-0047
Epoch Orbit933
Epoch Day94.13559575
Epoch Year2020
RAAN145.4726
Inclination87.5221
Eccentricity0.0021964
Argument of Perigee98.2146
Mean Anonmoly262.157
Mean Motion14.82230124
Decay Rate-0.00321071
L11 45152U 20008X 20094.13559575 -.00321071 00000-0 -42018-1 0 9994
L22 45152 87.5221 145.4726 0021964 98.2146 262.1570 14.82230124 9330

Live tracking and technical data element details for ONEWEB-0047 (NORAD 45152). ONEWEB-0047 can be tracked NOW for your location showing map with azimuth and elevation plus other details from your city location.

Track the satellite on the map from your city or location and see movement details for azimuth, elevation, latitude, longitude, range, height, and movement on the map or in text.







IsCatalogInMostPopularTable: catalog: 45152, numindb: 15
Update: records affected: 1



GetName: 45152 ONEWEB-0047

Hit Count: updated at: Sun, 05 Apr 2020 19:05:01 GMT